DM5RC Weather Reports


time (UTC)temp
C
wind
direction
speed
KPH
gust
KPH
rain 1hr
cm
rain 24hr
cm
rain mn
cm
humidity
%
barometer
mb
20260904101830 22 273 11.3 30.6 0.00 0.00 0.00 75 1009.2
20260904101350 22 351 14.5 30.6 0.00 0.00 0.00 76 1009.5
20260904100813 22 264 16.1 29.0 0.00 0.00 0.00 76 1009.6
20260904100317 22 260 12.9 25.7 0.00 0.00 0.00 77 1009.5
20260904095819 22 276 12.9 25.7 0.00 0.00 0.00 77 1009.5
20260904095321 22 242 8.0 29.0 0.00 0.00 0.00 77 1009.7
20260904094823 22 219 14.5 29.0 0.00 0.00 0.00 77 1009.7
20260904094324 22 79 8.0 33.8 0.00 0.00 0.00 78 1009.7
20260904093824 22 275 17.7 33.8 0.00 0.00 0.00 77 1009.8
20260904093324 22 269 12.9 24.1 0.00 0.00 0.00 78 1010.0
20260904092825 22 262 12.9 24.1 0.00 0.00 0.00 78 1010.2
20260904092323 22 282 9.7 20.9 0.00 0.00 0.00 79 1010.4
20260904091824 22 210 9.7 27.4 0.00 0.00 0.00 79 1010.5
20260904091326 22 225 9.7 27.4 0.00 0.00 0.00 79 1010.5
20260904090829 22 258 14.5 25.7 0.00 0.00 0.00 79 1010.6
20260904090351 22 249 14.5 25.7 0.00 0.00 0.00 78 1010.7
20260904085832 22 232 11.3 24.1 0.00 0.00 0.00 79 1010.7
20260904085312 21 280 12.9 38.6 0.00 0.00 0.00 79 1010.8
20260904084814 21 236 12.9 38.6 0.00 0.00 0.00 80 1010.8
20260904084315 21 226 16.1 29.0 0.00 0.00 0.00 80 1010.8
20260904083836 21 141 11.3 22.5 0.00 0.00 0.00 80 1010.9
20260904083341 21 283 12.9 29.0 0.00 0.00 0.00 80 1010.9
20260904082824 21 163 9.7 29.0 0.00 0.00 0.00 80 1011.0
20260904082323 21 215 8.0 19.3 0.00 0.00 0.00 81 1011.0
20260904081823 21 255 9.7 19.3 0.00 0.00 0.00 81 1011.1
20260904081324 21 172 9.7 22.5 0.00 0.00 0.00 81 1011.2
20260904080824 21 277 11.3 24.1 0.00 0.00 0.00 81 1011.3
20260904080325 20 207 9.7 24.1 0.00 0.00 0.00 82 1011.4
20260904075826 20 280 11.3 25.7 0.00 0.00 0.00 81 1011.3
20260904075327 20 239 9.7 25.7 0.00 0.00 0.00 81 1011.2
20260904074329 20 241 9.7 16.1 0.00 0.00 0.00 81 1011.3
20260904073829 20 288 8.0 17.7 0.00 0.00 0.00 82 1011.3
20260904073346 20 184 8.0 19.3 0.00 0.00 0.00 82 1011.5
20260904072825 20 246 9.7 22.5 0.00 0.00 0.00 82 1011.7
20260904072326 20 258 12.9 22.5 0.00 0.00 0.00 82 1011.8
20260904071827 20 238 11.3 20.9 0.00 0.00 0.00 83 1011.9
20260904071328 20 238 8.0 16.1 0.00 0.00 0.00 83 1011.9
20260904070829 20 235 6.4 16.1 0.00 0.00 0.00 83 1012.1
20260904070330 20 245 8.0 16.1 0.00 0.00 0.00 83 1012.1
20260904065831 20 215 4.8 14.5 0.00 0.00 0.00 83 1012.0
20260904065313 20 217 4.8 14.5 0.00 0.00 0.00 84 1011.9
20260904064836 20 227 6.4 14.5 0.00 0.00 0.00 84 1011.9
20260904064318 19 224 8.0 12.9 0.00 0.00 0.00 84 1012.0
20260904063820 19 245 6.4 17.7 0.00 0.00 0.00 84 1012.1
20260904063322 19 263 8.0 17.7 0.00 0.00 0.00 84 1012.2
20260904062824 19 155 6.4 14.5 0.00 0.00 0.00 85 1012.2
20260904062327 18 228 6.4 14.5 0.00 0.00 0.00 85 1012.3
20260904061827 18 257 3.2 9.7 0.00 0.00 0.00 85 1012.3
20260904061341 18 250 4.8 9.7 0.00 0.00 0.00 86 1012.3
20260904060819 18 244 6.4 9.7 0.00 0.00 0.00 86 1012.5
20260904060340 18 207 4.8 9.7 0.00 0.00 0.00 86 1012.5
20260904055820 18 222 4.8 9.7 0.00 0.00 0.00 86 1012.5
20260904055319 18 278 4.8 11.3 0.00 0.00 0.00 87 1012.7
20260904054821 18 246 3.2 11.3 0.00 0.00 0.00 87 1012.8
20260904054320 18 231 4.8 12.9 0.00 0.00 0.00 87 1012.7
20260904053815 18 186 6.4 12.9 0.00 0.00 0.00 87 1012.8
20260904053314 18 252 6.4 11.3 0.00 0.00 0.00 87 1012.9
20260904052817 18 236 6.4 11.3 0.00 0.00 0.00 88 1012.9
20260904052339 17 248 3.2 11.3 0.00 0.00 0.00 88 1012.7
20260904051820 17 286 6.4 11.3 0.00 0.00 0.00 88 1012.8
20260904051322 17 260 6.4 12.9 0.00 0.00 0.00 88 1012.9
20260904050825 17 278 6.4 12.9 0.00 0.00 0.00 88 1012.9
20260904050327 17 243 4.8 9.7 0.00 0.00 0.00 88 1012.9
20260904045830 17 225 4.8 12.9 0.00 0.00 0.00 88 1012.9
20260904045333 17 257 3.2 12.9 0.00 0.00 0.00 88 1012.9
20260904044815 17 223 3.2 12.9 0.00 0.00 0.00 88 1013.1
20260904044318 17 265 4.8 11.3 0.00 0.00 0.00 88 1013.1
20260904043840 17 269 4.8 9.7 0.00 0.00 0.00 88 1013.1
20260904043322 17 278 4.8 9.7 0.00 0.00 0.00 88 1013.2
20260904042824 17 248 3.2 9.7 0.00 0.00 0.00 87 1013.1
20260904042325 17 238 3.2 8.0 0.00 0.00 0.00 87 1013.2
20260904041827 17 247 4.8 9.7 0.00 0.00 0.00 87 1013.4
20260904041347 17 227 3.2 9.7 0.00 0.00 0.00 87 1013.4
20260904040826 18 258 3.2 8.0 0.00 0.00 0.00 86 1013.3
20260904040327 18 216 3.2 11.3 0.00 0.00 0.00 86 1013.4
20260904035828 18 276 4.8 16.1 0.00 0.00 0.00 86 1013.3
20260904035330 18 270 6.4 16.1 0.00 0.00 0.00 86 1013.2
20260904034852 18 187 4.8 14.5 0.00 0.00 0.00 86 1013.2
20260904034353 18 251 6.4 11.3 0.00 0.00 0.00 86 1013.4
20260904033813 18 225 4.8 11.3 0.00 0.00 0.00 86 1013.5
20260904033335 18 244 4.8 12.9 0.00 0.00 0.00 86 1013.5
20260904032838 18 226 6.4 14.5 0.00 0.00 0.00 85 1013.7
20260904032343 18 269 6.4 14.5 0.00 0.00 0.00 85 1013.7
20260904031846 18 212 6.4 9.7 0.00 0.00 0.00 85 1013.6
20260904031330 18 255 4.8 9.7 0.00 0.00 0.00 85 1013.7
20260904030832 18 240 4.8 9.7 0.00 0.00 0.00 85 1013.6
20260904030314 18 266 4.8 9.7 0.00 0.00 0.00 85 1013.7
20260904025817 18 272 4.8 9.7 0.00 0.00 0.00 86 1013.6
20260904025340 18 227 3.2 9.7 0.00 0.00 0.00 85 1013.7
20260904024820 18 255 4.8 9.7 0.00 0.00 0.00 85 1013.8
20260904024341 18 261 4.8 11.3 0.00 0.00 0.00 85 1013.8
20260904023820 18 266 4.8 12.9 0.00 0.00 0.00 85 1013.8
20260904023320 18 257 4.8 12.9 0.00 0.00 0.00 85 1013.6
20260904022841 18 257 1.6 9.7 0.00 0.00 0.00 85 1013.8
20260904022320 18 283 4.8 12.9 0.00 0.00 0.00 85 1013.9
20260904021841 18 244 6.4 14.5 0.00 0.00 0.00 85 1014.0
20260904021320 18 267 8.0 14.5 0.00 0.00 0.00 85 1014.0
20260904020841 18 259 6.4 16.1 0.00 0.00 0.00 85 1014.0
20260904020341 18 272 6.4 11.3 0.00 0.00 0.00 85 1014.0
20260904015821 18 263 3.2 9.7 0.00 0.00 0.00 85 1014.0
20260904015322 18 248 4.8 14.5 0.00 0.00 0.00 85 1014.0
20260904014823 18 277 8.0 14.5 0.00 0.00 0.00 85 1014.0
20260904014324 18 249 6.4 12.9 0.00 0.00 0.00 85 1014.0
20260904013826 18 257 4.8 12.9 0.00 0.00 0.00 85 1013.9
20260904013329 18 271 4.8 14.5 0.00 0.00 0.00 85 1014.0
20260904012812 18 239 6.4 12.9 0.00 0.00 0.00 85 1014.1
20260904012314 18 298 4.8 14.5 0.00 0.00 0.00 85 1014.0
20260904011817 18 266 6.4 12.9 0.00 0.00 0.00 84 1014.0
20260904011319 18 254 6.4 11.3 0.00 0.00 0.00 84 1013.8
20260904010822 18 271 6.4 9.7 0.00 0.00 0.00 84 1013.9
20260904010325 18 230 4.8 11.3 0.00 0.00 0.00 84 1014.0
20260904005826 18 219 6.4 12.9 0.00 0.00 0.00 84 1013.9
20260904005328 18 237 3.2 12.9 0.00 0.00 0.00 84 1013.9
20260904004830 18 268 4.8 12.9 0.00 0.00 0.00 84 1014.0
20260904004341 18 257 8.0 12.9 0.00 0.00 0.00 84 1014.1
20260904003823 18 227 6.4 14.5 0.00 0.00 0.00 84 1014.1
20260904003326 18 249 6.4 14.5 0.00 0.00 0.00 84 1014.1
20260904002851 18 240 4.8 11.3 0.00 0.00 0.00 84 1014.1
20260904002313 18 283 6.4 14.5 0.00 0.00 0.00 84 1014.1
20260904001818 18 273 6.4 12.9 0.00 0.00 0.00 83 1014.2
20260904001324 18 272 6.4 12.9 0.00 0.00 0.00 84 1014.1
20260904000825 18 246 4.8 12.9 0.00 0.00 0.00 83 1014.2
20260904000328 18 273 4.8 11.3 0.00 0.00 0.00 83 1014.3
20260903235828 18 238 6.4 11.3 0.00 0.00 0.00 83 1014.3
20260903235331 18 220 6.4 12.9 0.00 0.00 0.00 83 1014.4
20260903234833 18 258 6.4 16.1 0.00 0.00 0.00 83 1014.4
20260903234353 18 235 6.4 17.7 0.00 0.00 0.00 82 1014.4
20260903233814 18 262 9.7 17.7 0.00 0.00 0.00 82 1014.4
20260903233315 18 264 8.0 14.5 0.00 0.00 0.00 83 1014.4
20260903232817 18 269 6.4 12.9 0.00 0.00 0.00 83 1014.5
20260903232319 18 243 4.8 20.9 0.00 0.00 0.00 83 1014.5
20260903231821 18 251 8.0 20.9 0.00 0.00 0.00 82 1014.5
20260903231322 18 255 9.7 19.3 0.00 0.00 0.00 82 1014.7
20260903230823 18 262 8.0 16.1 0.00 0.00 0.00 82 1014.8
20260903230321 18 277 6.4 17.7 0.00 0.00 0.00 82 1014.8
20260903225843 18 229 8.0 17.7 0.00 0.00 0.00 83 1014.6
20260903225323 18 276 8.0 14.5 0.00 0.00 0.00 83 1014.6
20260903224824 18 259 8.0 14.5 0.00 0.00 0.00 83 1014.7
20260903224325 18 270 6.4 19.3 0.00 0.00 0.00 83 1014.7
20260903223826 18 276 6.4 19.3 0.00 0.00 0.00 83 1014.7
20260903223329 18 288 9.7 17.7 0.00 0.00 0.00 83 1014.7
20260903222814 18 254 4.8 14.5 0.00 0.00 0.00 83 1014.6
20260903222318 18 276 8.0 16.1 0.00 0.00 0.00 83 1014.6
20260903221822 18 271 9.7 20.9 0.00 0.00 0.00 83 1014.6
20260903221326 18 252 9.7 20.9 0.00 0.00 0.00 83 1014.6
20260903220829 18 225 8.0 16.1 0.00 0.00 0.00 83 1014.6
20260903220331 18 269 8.0 16.1 0.00 0.00 0.00 84 1014.6
20260903215826 18 281 8.0 14.5 0.00 0.00 0.00 84 1014.6
20260903215328 18 263 6.4 14.5 0.00 0.00 0.00 83 1014.6
20260903214812 18 257 8.0 17.7 0.00 0.00 0.00 83 1014.6
20260903214314 18 271 8.0 17.7 0.00 0.00 0.00 83 1014.6
20260903213835 18 228 9.7 17.7 0.00 0.00 0.00 83 1014.6
20260903213316 18 276 6.4 20.9 0.00 0.00 0.00 83 1014.6
20260903212816 18 236 8.0 22.5 0.00 0.00 0.00 83 1014.6
20260903212317 18 280 8.0 22.5 0.00 0.00 0.00 83 1014.7
20260903211840 18 260 8.0 11.3 0.00 0.00 0.00 84 1014.8
20260903211320 18 236 6.4 16.1 0.00 0.00 0.00 84 1014.8
20260903210822 18 274 8.0 16.1 0.00 0.00 0.00 84 1014.8
20260903210324 18 283 6.4 14.5 0.00 0.00 0.00 84 1014.7
20260903205827 18 278 6.4 16.1 0.00 0.00 0.00 84 1014.6
20260903205328 18 233 4.8 19.3 0.00 0.00 0.00 84 1014.7
20260903204831 18 261 9.7 19.3 0.00 0.00 0.00 84 1014.6
20260903204313 18 258 6.4 17.7 0.00 0.00 0.00 84 1014.7
20260903203814 18 244 4.8 17.7 0.00 0.00 0.00 84 1014.9
20260903203338 18 282 6.4 17.7 0.00 0.00 0.00 84 1014.9
20260903202821 18 256 6.4 16.1 0.00 0.00 0.00 84 1015.0
20260903202326 18 261 9.7 16.1 0.00 0.00 0.00 84 1015.0
20260903201829 18 264 6.4 17.7 0.00 0.00 0.00 83 1015.1
20260903201313 18 250 6.4 19.3 0.00 0.00 0.00 83 1014.9
20260903200819 18 236 9.7 19.3 0.00 0.00 0.00 83 1014.9
20260903200323 18 248 8.0 17.7 0.00 0.00 0.00 83 1014.8
20260903195824 18 257 6.4 19.3 0.00 0.00 0.00 83 1014.7
20260903195326 18 255 9.7 19.3 0.00 0.00 0.00 83 1014.7
20260903194828 18 250 9.7 19.3 0.00 0.00 0.00 83 1014.7
20260903194330 18 218 8.0 19.3 0.00 0.00 0.00 82 1014.9
20260903193833 18 283 6.4 19.3 0.00 0.00 0.00 82 1014.9
20260903193313 18 264 8.0 19.3 0.00 0.00 0.00 82 1014.9
20260903192814 18 272 9.7 19.3 0.00 0.00 0.00 82 1014.8
20260903192315 18 210 9.7 20.9 0.00 0.00 0.00 82 1014.8
20260903191818 18 264 9.7 20.9 0.00 0.00 0.00 82 1014.9
20260903191322 18 261 8.0 20.9 0.00 0.00 0.00 82 1014.9
20260903190826 18 270 11.3 19.3 0.00 0.00 0.00 82 1014.9
20260903190331 18 269 6.4 20.9 0.00 0.00 0.00 82 1014.9
20260903185815 18 243 8.0 20.9 0.00 0.00 0.00 81 1014.9
20260903185318 18 285 9.7 17.7 0.00 0.00 0.00 81 1015.0
20260903184841 18 272 8.0 20.9 0.00 0.00 0.00 81 1014.9
20260903184322 18 223 8.0 20.9 0.00 0.00 0.00 81 1014.8
20260903183824 18 266 9.7 29.0 0.00 0.00 0.00 81 1014.9
20260903183317 18 259 16.1 29.0 0.00 0.00 0.00 81 1014.9
20260903182818 19 274 11.3 27.4 0.00 0.00 0.00 80 1014.7
20260903182338 19 269 14.5 27.4 0.00 0.00 0.00 80 1014.8
20260903181817 19 248 11.3 22.5 0.00 0.00 0.00 80 1014.8
20260903181318 19 268 16.1 22.5 0.00 0.00 0.00 80 1014.7
20260903180817 19 272 8.0 25.7 0.00 0.00 0.00 79 1014.6
20260903180328 19 269 14.5 25.7 0.00 0.00 0.00 79 1014.6
20260903175831 19 264 14.5 25.7 0.00 0.00 0.00 79 1014.6
20260903175314 19 287 9.7 24.1 0.00 0.00 0.00 79 1014.6
20260903174817 20 270 9.7 20.9 0.00 0.00 0.00 78 1014.7
20260903174318 20 245 11.3 24.1 0.00 0.00 0.00 77 1014.7
20260903173821 20 273 12.9 35.4 0.00 0.00 0.00 77 1014.5
20260903173324 20 234 17.7 35.4 0.00 0.00 0.00 77 1014.5
20260903172827 20 281 14.5 35.4 0.00 0.00 0.00 77 1014.5
20260903172330 20 223 16.1 40.2 0.00 0.00 0.00 76 1014.4
20260903171814 20 279 20.9 40.2 0.00 0.00 0.00 75 1014.4
20260903171316 20 274 14.5 35.4 0.00 0.00 0.00 75 1014.3
20260903170819 20 258 12.9 40.2 0.00 0.00 0.00 74 1014.5
20260903170321 20 316 20.9 40.2 0.00 0.00 0.00 74 1014.4
20260903165825 20 255 11.3 32.2 0.00 0.00 0.00 73 1014.4
20260903165327 20 240 19.3 32.2 0.00 0.00 0.00 72 1014.4
20260903164850 21 220 19.3 35.4 0.00 0.00 0.00 71 1014.3
20260903164331 21 267 19.3 45.1 0.00 0.00 0.00 70 1014.2
20260903163835 21 285 14.5 35.4 0.00 0.00 0.00 70 1014.2
20260903163316 21 236 24.1 35.4 0.00 0.00 0.00 69 1014.3
20260903162821 21 266 14.5 35.4 0.00 0.00 0.00 68 1014.2
20260903162324 21 72 9.7 40.2 0.00 0.00 0.00 68 1014.2
20260903161828 21 293 22.5 43.5 0.00 0.00 0.00 67 1014.4
20260903161328 22 245 24.1 43.5 0.00 0.00 0.00 66 1014.3
20260903160816 22 177 16.1 41.8 0.00 0.00 0.00 65 1014.3
20260903160314 22 249 22.5 41.8 0.00 0.00 0.00 64 1014.4
20260903155814 22 263 11.3 38.6 0.00 0.00 0.00 63 1014.2
20260903155317 23 283 22.5 43.5 0.00 0.00 0.00 62 1014.2
20260903154820 23 264 24.1 43.5 0.00 0.00 0.00 61 1014.3
20260903154323 23 268 17.7 38.6 0.00 0.00 0.00 61 1014.2
20260903153845 23 241 22.5 38.6 0.00 0.00 0.00 60 1014.1
20260903153346 23 269 12.9 32.2 0.00 0.00 0.00 60 1014.1
20260903152825 23 276 14.5 40.2 0.00 0.00 0.00 59 1014.1
20260903152347 23 288 19.3 41.8 0.00 0.00 0.00 59 1014.2
20260903151849 23 240 19.3 41.8 0.00 0.00 0.00 59 1014.2
20260903151330 23 264 16.1 32.2 0.00 0.00 0.00 59 1014.2
20260903150833 23 282 19.3 35.4 0.00 0.00 0.00 59 1014.2
20260903150333 23 267 12.9 29.0 0.00 0.00 0.00 59 1014.5
20260903145816 23 248 11.3 19.3 0.00 0.00 0.00 60 1014.3
20260903145337 23 264 8.0 19.3 0.00 0.00 0.00 60 1014.2
20260903144834 23 272 8.0 24.1 0.00 0.00 0.00 60 1014.3
20260903144314 23 252 8.0 24.1 0.00 0.00 0.00 60 1014.4
20260903143816 23 224 12.9 19.3 0.00 0.00 0.00 59 1014.4
20260903143318 23 260 8.0 24.1 0.00 0.00 0.00 60 1014.4
20260903142820 23 284 8.0 24.1 0.00 0.00 0.00 60 1014.5
20260903142342 23 276 6.4 20.9 0.00 0.00 0.00 59 1014.6
20260903141824 23 249 11.3 24.1 0.00 0.00 0.00 59 1014.6
20260903141326 23 268 12.9 24.1 0.00 0.00 0.00 59 1014.7
20260903140849 23 264 8.0 22.5 0.00 0.00 0.00 59 1014.7
20260903140331 23 269 9.7 29.0 0.00 0.00 0.00 59 1014.8
20260903135816 23 210 17.7 29.0 0.00 0.00 0.00 58 1014.9
20260903135339 23 254 11.3 27.4 0.00 0.00 0.00 58 1014.9
20260903134820 23 238 12.9 22.5 0.00 0.00 0.00 58 1014.8
20260903134320 23 263 12.9 24.1 0.00 0.00 0.00 57 1014.8
20260903133819 23 250 11.3 24.1 0.00 0.00 0.00 58 1014.8
20260903133319 23 230 11.3 25.7 0.00 0.00 0.00 57 1014.9
20260903132819 23 236 11.3 20.9 0.00 0.00 0.00 57 1015.0
20260903132320 23 219 11.3 25.7 0.00 0.00 0.00 57 1015.0
20260903131840 23 283 11.3 25.7 0.00 0.00 0.00 58 1015.1
20260903131321 22 233 12.9 25.7 0.00 0.00 0.00 58 1015.2
20260903130823 22 138 8.0 17.7 0.00 0.00 0.00 59 1015.2
20260903130318 22 229 9.7 20.9 0.00 0.00 0.00 58 1015.2
20260903125821 22 184 6.4 24.1 0.00 0.00 0.00 59 1015.4
20260903125343 22 257 8.0 24.1 0.00 0.00 0.00 59 1015.5
20260903124825 22 242 8.0 20.9 0.00 0.00 0.00 59 1015.5
20260903124328 22 272 8.0 20.9 0.00 0.00 0.00 58 1015.6
20260903123830 22 233 6.4 17.7 0.00 0.00 0.00 60 1015.7
20260903123331 22 269 8.0 22.5 0.00 0.00 0.00 61 1015.8
20260903122837 21 268 11.3 25.7 0.00 0.00 0.00 60 1015.8
20260903122319 22 261 12.9 25.7 0.00 0.00 0.00 61 1015.8
20260903121821 22 274 11.3 24.1 0.00 0.00 0.00 61 1015.9
20260903121323 22 262 11.3 20.9 0.00 0.00 0.00 61 1016.0
20260903120826 21 272 8.0 19.3 0.00 0.00 0.00 62 1016.0
20260903120328 21 238 9.7 25.7 0.00 0.00 0.00 62 1016.0
20260903115830 21 271 11.3 25.7 0.00 0.00 0.00 62 1016.1
20260903115313 21 290 9.7 22.5 0.00 0.00 0.00 63 1016.1
20260903114814 21 245 9.7 22.5 0.00 0.00 0.00 63 1016.1
20260903114315 21 185 11.3 19.3 0.00 0.00 0.00 63 1016.1
20260903113817 21 248 4.8 16.1 0.00 0.00 0.00 63 1016.2
20260903113317 21 262 11.3 24.1 0.00 0.00 0.00 62 1016.2
20260903112816 21 258 9.7 25.7 0.00 0.00 0.00 63 1016.3
20260903112314 21 258 16.1 30.6 0.00 0.00 0.00 61 1016.3
20260903111819 22 227 11.3 29.0 0.00 0.00 0.00 62 1016.2
20260903111322 22 249 14.5 27.4 0.00 0.00 0.00 62 1016.2
20260903110823 22 250 12.9 22.5 0.00 0.00 0.00 62 1016.4
20260903110325 22 270 11.3 17.7 0.00 0.00 0.00 62 1016.4
20260903105842 21 268 11.3 22.5 0.00 0.00 0.00 63 1016.4
20260903105341 21 263 11.3 22.5 0.00 0.00 0.00 63 1016.5
20260903104821 21 185 8.0 16.1 0.00 0.00 0.00 64 1016.6
20260903104321 21 246 4.8 33.8 0.00 0.00 0.00 65 1016.6
20260903103822 21 231 11.3 33.8 0.00 0.00 0.00 64 1016.8
20260903103344 21 270 9.7 20.9 0.00 0.00 0.00 64 1017.1
20260903102826 21 286 9.7 20.9 0.00 0.00 0.00 64 1017.0
20260903102350 21 257 11.3 20.9 0.00 0.00 0.00 63 1017.0